Wetbulb
66.47 69.01 68.45 68.37 67.42 66.72 66.02 65.79 66.88 67.84 67.93 68.28 68.37 66.70 67.04 65.90 64.23 63.73 63.09 61.48 60.35 60.10
65.90 68.69 67.93 67.04 66.88 66.58 65.91 66.79 67.71 68.22 67.06 67.73 67.72 67.02 66.10 65.26 63.48 63.25 62.32 61.44 60.96 60.44
68.27 69.52 67.95 67.62 66.57 66.39 65.89 67.15 67.44 67.51 67.91 66.86 66.63 65.74 64.32 63.21 62.70 62.38 61.86 61.53 61.58 60.79
69.31 69.73 68.62 68.00 67.59 67.53 67.53 67.85 67.98 67.61 66.41 65.81 66.10 65.55 62.76 62.12 62.89 61.85 60.96 61.19 61.38 60.52
69.05 69.91 69.23 68.53 68.85 68.73 67.44 67.90 67.17 66.69 65.94 65.85 64.39 64.30 63.11 62.47 63.02 61.25 60.56 60.46 60.72 60.12
67.73 67.79 67.22 67.39 67.11 67.69 66.40 65.45 65.54 64.43 64.26 64.58 63.55 63.47 63.57 62.53 62.28 61.76 61.19 61.19 59.70 58.80
66.52 66.96 66.52 66.61 66.42 65.90 65.83 64.51 63.60 62.78 63.24 64.44 64.58 64.85 64.19 63.10 61.70 61.18 60.85 60.35 60.12 60.89
66.53 66.57 66.48 66.03 64.96 63.99 62.25 62.00 62.61 63.07 63.38 62.09 61.96 63.32 63.10 62.65 61.76 60.41 59.37 59.26 60.57 61.27
65.51 65.13 64.05 62.84 63.51 62.27 61.98 61.88 62.94 62.05 61.40 60.51 59.65 49.94 55.34 60.30 60.78 60.00 60.50 58.53 59.91 59.91
64.58 63.66 63.87 62.08 61.95 62.35 62.02 62.34 62.94 62.70 60.91 58.12 55.18 48.67 51.39 57.39 60.27 59.59 59.37 58.43 59.60 60.59
63.11 61.68 61.38 62.14 61.81 62.21 62.02 61.96 63.20 62.67 60.36 56.61 54.69 49.21 51.60 54.47 60.43 59.91 60.10 59.68 59.73 59.80
61.88 61.52 62.38 61.67 61.74 62.44 61.32 60.10 60.51 61.30 58.92 56.39 55.44 48.31 50.84 57.27 59.39 59.23 59.13 58.89 57.89 59.41
63.24 62.30 62.08 62.18 62.38 61.85 60.35 61.01 61.95 61.42 59.65 54.17 55.28 46.86 53.02 58.16 58.88 58.48 58.36 58.17 57.77 48.49
61.83 61.82 62.34 62.38 62.20 60.23 60.26 60.84 60.92 59.65 58.29 57.57 55.74 53.55 50.28 52.74 59.15 58.83 58.11 57.39 55.96 52.98
MSLP
998.47 999.23 1000.04 1000.67 1001.35 1001.81 1002.45 1002.90 1003.13 1003.48 1004.29 1004.87 1005.37 1005.98 1006.36 1006.87 1007.38 1007.85 1008.29 1008.72 1009.07 1009.33
998.10 999.00 999.67 1000.39 1001.03 1001.64 1002.13 1002.67 1003.04 1003.39 1004.11 1004.69 1005.33 1005.84 1006.40 1006.97 1007.37 1007.66 1008.11 1008.47 1008.83 1009.20
997.91 998.74 999.23 1000.00 1000.82 1001.52 1002.03 1002.36 1002.86 1003.36 1003.97 1004.69 1005.31 1005.80 1006.33 1006.91 1007.18 1007.59 1007.94 1008.29 1008.69 1008.98
997.60 998.41 998.91 999.69 1000.43 1001.14 1001.71 1002.24 1002.78 1003.35 1004.08 1004.68 1005.27 1005.68 1006.31 1006.77 1006.98 1007.45 1007.89 1008.14 1008.43 1008.74
997.32 998.07 998.84 999.58 1000.23 1000.96 1001.69 1002.19 1002.75 1003.40 1003.96 1004.48 1004.97 1005.39 1006.10 1006.64 1006.81 1007.27 1007.71 1008.02 1008.32 1008.56
997.40 998.09 998.91 999.52 1000.35 1000.87 1001.59 1002.19 1002.83 1003.38 1003.81 1004.29 1004.87 1005.49 1005.80 1006.13 1006.55 1006.90 1007.32 1007.68 1008.10 1008.42
997.89 998.39 999.07 999.85 1000.53 1001.03 1001.55 1002.20 1002.77 1003.31 1003.85 1004.27 1004.71 1005.14 1005.62 1006.08 1006.35 1006.67 1007.04 1007.48 1007.92 1008.26
998.16 999.00 999.69 1000.28 1000.78 1001.41 1001.88 1002.41 1002.95 1003.57 1004.11 1004.69 1005.09 1005.60 1005.84 1006.17 1006.55 1006.96 1007.31 1007.68 1007.96 1008.14
998.56 999.24 999.86 1000.42 1001.04 1001.73 1002.33 1002.77 1003.22 1003.90 1004.45 1005.10 1005.77 1006.24 1006.14 1006.40 1006.80 1007.14 1007.44 1007.69 1007.98 1008.22
998.65 999.48 1000.08 1000.56 1001.39 1002.04 1002.61 1002.95 1003.67 1004.25 1004.85 1005.72 1006.30 1006.50 1006.53 1006.68 1007.00 1007.31 1007.52 1007.77 1008.02 1008.21
998.81 999.62 1000.08 1001.06 1001.75 1002.40 1002.84 1003.45 1003.97 1004.75 1005.39 1005.99 1006.65 1006.84 1006.87 1006.92 1007.13 1007.46 1007.70 1007.83 1007.98 1008.14
999.09 999.84 1000.66 1001.48 1002.17 1002.74 1003.16 1003.86 1004.45 1005.05 1005.65 1006.16 1006.89 1007.10 1007.00 1007.04 1007.43 1007.86 1008.05 1008.18 1008.33 1008.25
999.20 1000.04 1000.99 1001.69 1002.36 1002.87 1003.41 1004.08 1004.71 1005.48 1005.87 1006.49 1007.06 1007.26 1007.05 1007.21 1007.69 1008.10 1008.29 1008.47 1008.66 1008.71
999.35 1000.26 1001.10 1001.85 1002.41 1003.07 1003.73 1004.41 1005.24 1005.87 1006.40 1006.76 1007.09 1007.43 1007.35 1007.47 1007.75 1008.12 1008.45 1008.76 1009.14 1009.44
Wind_Speed
10 5 5 8 8 6 5 5 6 7 6 6 5 5 6 4 4 5 5 6 4 3
7 7 9 10 8 6 5 6 7 8 7 6 7 7 7 4 5 5 5 5 6 3
8 9 11 11 9 9 7 7 7 7 7 7 6 7 7 5 4 6 4 4 6 4
8 12 12 10 9 9 7 7 9 8 7 7 8 8 6 5 6 6 6 4 6 6
8 12 12 10 11 9 8 8 9 9 8 8 7 7 7 6 6 7 6 6 6 6
10 12 12 11 9 12 11 9 9 8 7 7 7 7 7 7 6 6 6 7 6 6
12 13 10 11 10 9 7 7 8 7 7 7 7 5 5 5 4 3 5 6 5 5
12 12 11 10 9 8 8 7 7 8 7 8 7 4 6 6 5 5 6 5 4 3
12 11 9 9 10 7 7 7 9 9 9 8 6 5 9 7 5 5 5 5 4 4
11 11 11 8 7 9 8 8 10 10 10 7 6 6 7 8 5 5 5 5 4 4
12 8 8 8 9 7 7 7 9 9 8 8 5 6 6 9 6 5 5 4 4 5
11 10 9 9 9 8 9 7 6 7 7 8 5 3 4 8 6 5 4 5 5 3
13 11 10 9 8 5 6 6 7 7 7 8 6 3 6 8 5 5 4 4 4 8
11 12 11 8 8 6 6 8 9 8 5 6 5 4 7 9 5 4 5 3 3 3
Wind_Direction
172 157 163 157 155 146 154 147 154 137 156 163 169 148 135 138 149 161 179 190 165 128
160 154 148 137 141 146 140 160 158 163 158 153 152 145 150 153 162 165 179 188 150 141
160 150 146 143 150 156 165 164 149 145 146 147 148 133 139 157 186 167 177 163 152 144
157 155 145 150 150 156 148 144 142 141 144 147 145 151 149 171 171 163 168 169 166 173
136 142 140 143 145 143 140 133 136 141 153 154 153 143 158 167 160 172 182 182 162 174
113 121 129 123 125 136 133 136 145 151 157 138 151 156 167 177 188 195 189 168 168 183
116 119 112 119 123 115 123 126 125 124 126 146 151 154 155 148 149 164 146 149 160 187
115 125 127 126 119 120 117 123 122 122 98 94 87 82 117 111 126 126 121 133 154 170
127 126 119 120 115 121 113 122 118 106 110 94 95 89 114 122 123 132 139 149 164 143
123 126 137 127 113 113 124 111 111 109 105 103 102 90 87 117 111 122 134 147 162 171
120 122 113 107 119 112 119 117 111 106 112 110 95 89 83 124 111 100 96 95 107 137
121 117 112 122 124 123 109 106 108 121 118 113 113 91 112 117 102 101 87 73 50 114
132 125 124 131 126 120 119 122 111 107 103 111 119 75 110 117 118 113 101 75 59 38
127 131 140 132 130 131 122 104 105 109 105 111 120 89 91 112 119 128 117 103 85 84